Regional Weather Roundup
Issued by NWS Lake Charles, LA

Current Version | Previous Version | Text Only | Print | Product List | Glossary On
Versions: 1 2 3 4 5 6 7 8 9 10 11 12 13 14 15 16 17 18 19 20 21 22 23 24 25 26 27 28 29 30 31 32 33 34 35 36 37 38 39 40 41 42 43 44 45 46 47 48 49 50
000
ASUS44 KLCH 260610
RWRLCH
RWRLCH
REGIONAL WEATHER ROUNDUP
NATIONAL WEATHER SERVICE LAKE CHARLES LA
1200 AM CST MON JAN 26 2015

Note: "fair" indicates few or no clouds below 12,000 feet with no
significant weather and/or obstructions to visibility.


ACROSS SOUTHEAST TEXAS

CITY           SKY/WX    TMP DP  RH WIND       PRES   REMARKS
BEAUMONT       CLEAR     56  30  37 NW13      30.10S
BEAUMONT CITY    N/A     52  32  46 N9        30.12S
ORANGE         CLEAR     56  27  32 NW8       30.11S
JASPER         CLEAR     50  28  42 W7        30.14S
$$

ACROSS CENTRAL LOUISIANA

CITY           SKY/WX    TMP DP  RH WIND       PRES   REMARKS
LEESVILLE      CLEAR     50  30  45 NW9       30.08R
FULLERTON        N/A     52  29  41 VRB5      30.06R
ALEXANDRIA INT CLEAR     51  31  46 NW10      30.06R
ESLER FIELD    CLEAR     52  31  44 NW7       30.06R
DERIDDER         N/A     52  27  38 NW9       30.11R
OAKDALE        CLEAR     53  29  40 NW7       30.07R
OPELOUSAS        N/A     51  32  48 NW7       30.05R
$$

ACROSS SOUTHWEST AND SOUTH CENTRAL LOUISIANA

CITY           SKY/WX    TMP DP  RH WIND       PRES   REMARKS
SULPHUR        CLEAR     56  29  36 NW16G22   30.09S
LAKE CHARLES   CLEAR     56  28  34 NW15      30.08R
CHENNAULT INT  CLEAR     55  29  36 NW13G21   30.09R
CAMERON PHI      N/A     54  34  47 NW7       30.12R
DEQUINCY         N/A     53  28  38 NW12G17   30.10R
JENNINGS         N/A     53  33  46 NW10      30.07R
LAFAYETTE      CLEAR     51  33  50 NW8       30.05R
NEW IBERIA     CLEAR     50  37  61 NW10      30.05S
ABBEVILLE        N/A     48  34  58 NW9       30.06R
PATTERSON      CLEAR     52  37  58 W7        30.04F
SALT POINT       N/A     53  45  74 NW6       30.04S
$$

SELECTED SITES ACROSS THE REGION

CITY           SKY/WX    TMP DP  RH WIND       PRES   REMARKS
HOUSTON BUSH   PTCLDY    57  27  31 NW14      30.14S
HOUSTON HOBBY  PTCLDY    56  27  32 NW8       30.14S
GALVESTON      CLEAR     54  37  52 NW7       30.15R
COLLEGE STAT   PTCLDY    54  27  35 N10       30.18S
CONROE         CLEAR     55  26  32 NW13G22   30.16S
HUNTSVILLE     CLEAR     55  25  31 NW9       30.17S
LUFKIN         CLEAR     49  29  46 NW5       30.14S
SHREVEPORT     CLEAR     47  31  53 NW9       30.10R
MONROE         PTCLDY    49  34  56 NW10      30.05R
NATCHEZ MS     CLEAR     50  34  53 W12G17    30.01S
BATON ROUGE    CLEAR     55  31  39 NW12      30.01R
N.O. INTL ARPT PTCLDY    51  41  68 W10       30.00R
SLIDELL        CLEAR     53  37  54 VRB3      29.97R
$$

MARINE REPORTS

STATION/POSITION TIME  TEMP    WIND        PRES    VSBY  WAVE
                       AIR SEA DIR/SP/G                  HT/PER
                 (UTC) (F)     (DEG/KT/KT) (MB)    (MI)  (FT/S)
BUOY 30 S HIGH I 0600   58 55  330/ 12/ 14 1019.9R         3/ 6
SEA RIM ST PARK  0600   51     330/  9/  9 1020.1R
PORT ARTHUR      0600      52  340/  9/ 13 1019.2S
SABINE PASS N    0600   57 52  330/ 13/ 24 1019.3F
TEXAS POINT      NOT AVBL
CALCASIEU PASS   0600   54 53  340/ 11/ 13   N/A
LK CHARLES BEACH 0600   56 52              1018.9R
MARSH ISLAND     NOT AVBL
FRESH WATER LOCK 0600   50 52  270/  6/  6 1018.2R
AMERADA PASS     0600   52 50  280/  9/ 11 1017.2R
$$


USA.gov is the U.S. government's official web portal to all federal, state and local government web resources and services.